Wind_Speed
3 3 2 2 2 2 2 2 2 3 4 4 4 4 3 3 2 2 2 2 2 3 4 5 6 7 9 10 11 10 9 8 8 8 9 9 9 10 10 10 10 9 7 5 4 3 2 2 2 3 4 5 6 8 9 11 12 14 15 17 19 21 21 22 22 22 21 19 17
7 6 6 6 5 5 5 4 4 3 3 2 2 2 2 2 2 3 3 3 3 2 2 3 3 4 5 6 7 7 7 6 7 8 9 9 9 9 9 9 8 7 6 5 3 3 3 3 4 4 4 5 5 6 8 9 10 12 13 15 17 18 19 20 20 19 17 15 14
8 8 8 8 8 7 6 6 7 7 6 6 4 2 1 1 2 2 2 3 3 2 2 2 2 3 4 5 6 6 5 5 5 6 6 7 7 7 7 7 6 6 5 4 4 5 6 6 6 6 6 6 6 6 7 8 9 10 12 14 15 17 18 18 19 18 16 15 14
8 8 8 9 9 8 8 7 7 7 7 6 6 5 4 4 3 3 3 3 3 3 3 2 1 2 3 3 3 2 2 2 2 3 4 6 6 6 6 5 4 4 4 5 6 7 7 8 8 9 9 9 8 8 9 10 10 11 12 13 15 16 17 17 17 16 15 14 13
8 8 8 8 8 8 8 8 7 7 7 6 6 6 6 6 5 4 4 3 4 5 4 4 3 2 2 2 3 3 3 3 3 4 5 6 5 5 4 3 2 3 4 5 6 7 8 8 9 10 11 11 11 11 11 11 11 12 12 13 14 14 15 15 14 14 13 13 13
8 8 8 8 7 7 7 7 7 7 7 7 7 7 7 7 6 6 5 5 5 5 5 5 5 6 7 7 7 6 6 6 6 6 6 6 4 3 2 2 3 4 5 6 6 7 8 8 9 10 11 11 11 11 12 12 12 12 12 13 13 13 13 13 13 13 13 13 13
7 7 7 7 7 7 7 7 7 7 7 7 8 8 8 8 7 7 6 6 5 5 5 6 7 7 8 9 9 9 8 8 8 7 6 5 3 2 2 3 5 6 6 7 8 8 9 9 10 10 11 11 11 11 11 11 12 12 12 12 12 12 12 11 12 12 12 12 12
7 7 8 8 7 8 8 7 7 7 7 7 8 8 7 7 7 6 6 6 6 6 5 5 6 6 7 7 7 8 8 8 7 5 4 3 2 2 4 5 7 8 9 10 10 10 11 11 11 10 10 10 10 10 10 11 11 11 11 11 11 11 11 11 11 11 11 11 11
8 8 8 7 8 7 7 7 7 7 7 7 7 7 6 6 6 5 5 6 6 5 5 5 4 4 4 5 5 6 5 5 4 2 1 2 3 5 6 8 9 10 10 11 11 11 12 12 11 10 10 9 9 9 9 10 9 9 9 9 10 10 10 10 10 10 10 11 11
8 8 7 7 7 7 6 7 7 7 7 7 6 6 6 5 5 5 5 5 5 4 4 4 3 3 3 3 4 4 3 2 1 3 5 6 7 8 8 9 9 9 10 10 10 10 10 10 10 9 8 8 7 7 7 8 8 8 8 9 9 9 10 10 10 10 10 11 11
8 7 7 7 7 6 6 7 7 6 6 6 6 5 5 5 5 5 5 4 4 4 4 3 3 2 2 1 1 1 1 2 4 6 6 7 7 7 7 7 7 7 7 8 8 8 8 8 8 7 6 6 5 5 6 6 6 7 7 8 8 9 9 10 10 11 11 11 11
7 7 7 6 6 6 6 6 6 6 6 5 5 5 5 5 5 4 3 3 3 3 3 2 2 2 3 3 3 3 3 4 5 5 5 5 5 5 5 6 6 6 6 6 7 7 7 6 6 5 5 4 4 4 5 5 5 6 6 7 8 9 9 9 10 10 11 11 10
7 7 7 6 6 6 6 6 6 6 5 5 5 4 4 4 4 3 2 2 2 2 2 2 2 3 4 4 4 4 4 4 4 4 4 4 4 5 5 5 6 6 6 6 6 6 6 5 5 4 4 4 3 4 4 4 4 5 5 6 7 8 9 9 9 9 10 10 9
7 7 7 6 5 5 5 6 5 5 5 4 4 4 4 4 3 3 2 2 2 2 2 2 3 3 4 4 4 4 5 5 5 4 5 5 5 6 6 6 6 6 6 6 6 5 5 5 4 4 3 3 3 3 3 4 4 4 5 5 6 7 7 8 8 8 8 8 8
8 7 6 5 5 5 5 5 6 5 5 4 4 4 4 4 4 4 3 3 2 2 2 3 3 4 4 5 5 5 6 6 5 5 5 6 6 6 7 7 7 7 6 6 6 5 5 5 4 4 3 3 3 3 3 4 4 4 4 5 5 6 6 6 6 6 6 6 6
8 7 6 6 5 5 5 6 6 6 5 5 5 4 4 5 5 5 4 4 4 4 4 5 5 6 6 6 6 6 6 5 5 5 6 6 7 7 7 7 6 6 6 6 6 5 5 5 4 4 3 3 3 3 3 3 3 3 4 4 4 4 4 4 4 4 4 4 4
8 8 7 6 7 7 7 7 7 7 6 5 5 5 5 5 4 4 4 4 5 5 6 6 6 6 6 6 6 6 5 5 5 5 5 6 7 7 6 6 7 7 7 6 6 5 5 5 4 4 4 3 3 3 3 3 3 3 3 3 3 3 3 2 2 1 1 1 1
9 9 8 8 8 8 8 8 7 7 7 6 6 6 5 5 5 5 5 6 6 6 6 6 6 5 6 6 6 5 5 5 5 5 6 6 6 6 7 7 7 8 7 7 6 5 5 5 4 4 4 3 3 3 3 3 3 3 3 4 4 4 4 4 3 2 2 1 1
10 10 9 9 9 9 8 8 8 8 8 7 7 6 6 6 6 7 7 7 6 6 5 5 5 5 6 6 6 5 5 5 5 6 6 6 6 7 7 7 7 7 7 6 5 5 5 5 5 4 4 4 4 4 4 5 5 5 5 6 6 5 5 4 4 3 3 2 3
10 10 10 10 9 9 9 8 8 8 8 7 7 7 7 7 7 7 7 8 7 6 5 6 6 7 7 6 6 6 6 6 7 7 8 7 7 7 7 7 6 6 6 6 6 6 6 6 5 5 4 4 5 6 6 6 6 7 7 7 6 6 5 4 4 3 3 3 3
11 11 10 10 9 9 9 9 8 8 7 7 7 8 8 7 7 7 8 8 7 7 7 7 7 7 7 7 7 7 8 8 8 9 9 9 9 9 8 7 7 7 7 7 7 7 6 6 6 6 6 6 7 7 7 7 7 7 7 7 7 6 5 5 5 5 5 4 4
11 10 10 10 10 10 10 9 9 8 8 8 8 8 8 9 9 9 8 8 8 8 8 8 8 7 7 7 8 8 9 9 9 10 10 11 11 10 9 9 9 9 9 8 8 7 7 7 7 6 6 7 7 7 7 7 7 7 7 7 7 7 6 6 6 6 6 6 5
11 11 11 11 11 11 11 11 11 10 10 10 10 10 11 11 11 10 10 9 10 10 10 10 10 9 9 9 9 9 10 11 11 12 12 12 13 12 11 11 11 10 10 9 7 7 7 7 7 6 6 7 7 7 7 7 7 7 8 8 8 8 8 7 7 7 7 7 7
11 11 11 12 12 12 12 12 12 12 12 12 12 12 13 13 13 12 12 12 12 13 13 13 12 12 12 12 12 12 13 14 15 15 15 15 15 15 14 14 13 12 11 9 7 6 6 7 7 7 6 7 7 7 7 7 7 7 7 7 8 8 7 7 6 6 6 6 7
11 11 12 12 12 12 12 12 13 13 13 12 12 12 13 13 13 14 14 14 14 15 15 15 14 14 14 14 15 15 16 17 17 17 17 17 17 17 16 16 15 13 12 11 9 7 6 6 6 6 6 6 7 7 7 6 6 6 6 7 7 7 7 7 6 6 6 6 6
11 12 12 12 12 12 12 12 12 12 12 12 12 12 13 13 14 14 15 16 16 16 17 17 17 17 17 18 18 18 18 18 18 18 18 18 17 17 16 16 15 14 13 11 10 9 8 6 6 5 5 5 6 6 6 6 6 6 6 6 6 7 7 7 7 6 6 5 5
12 12 12 11 12 12 12 11 11 12 12 12 12 13 13 13 14 15 16 17 18 18 19 19 19 19 19 20 20 19 19 18 18 18 18 17 17 17 16 15 14 13 13 12 11 10 9 7 6 5 5 4 5 5 6 7 7 7 7 7 7 7 7 7 7 6 5 5 4
12 12 12 12 12 12 11 11 11 11 12 12 12 12 13 14 15 16 17 18 19 19 19 19 19 19 20 19 19 18 18 17 17 17 17 17 17 17 16 15 14 13 12 11 11 10 9 8 6 5 5 5 5 6 6 7 8 8 8 8 8 7 7 7 6 5 4 3 3
12 12 12 12 12 12 11 11 11 12 12 12 12 13 14 15 16 17 17 18 18 18 18 18 18 18 18 18 18 17 17 17 16 16 16 17 17 16 16 15 14 13 12 11 11 10 10 9 7 6 6 6 6 7 7 8 8 9 8 8 8 7 7 6 5 4 3 3 2
13 13 13 13 13 12 12 12 12 12 12 13 13 14 15 16 16 16 16 16 17 17 17 17 18 18 18 17 17 16 16 16 16 16 16 17 16 16 15 14 14 13 12 12 11 11 10 9 8 7 7 7 7 7 8 8 8 8 8 7 7 6 6 5 5 5 5 4 4
12 13 13 13 13 13 12 12 12 13 13 14 15 15 16 16 16 15 16 16 17 17 17 18 18 18 17 17 16 16 16 16 16 16 16 16 16 15 15 14 14 13 13 12 12 11 10 10 9 8 7 7 7 7 7 7 7 7 7 7 7 7 7 6 7 7 7 6 6
12 13 13 14 13 13 13 13 13 14 14 15 15 15 15 15 15 16 16 16 17 17 17 17 18 18 17 16 16 16 16 16 16 16 16 16 16 15 15 14 14 13 13 12 12 11 11 10 8 7 7 7 6 7 7 7 8 8 9 9 9 8 8 8 8 8 8 8 8
12 13 13 14 14 13 13 13 13 14 14 15 15 15 15 16 16 16 16 17 17 17 17 17 18 17 17 16 16 16 15 15 15 15 15 15 16 16 15 15 14 13 13 12 12 11 11 9 8 8 7 7 8 8 8 9 10 10 10 10 10 9 9 8 8 8 8 8 8
12 13 14 14 13 13 13 13 14 14 15 15 15 15 16 16 17 17 17 16 16 17 17 17 17 16 16 15 15 15 15 15 15 15 15 16 16 16 16 16 14 13 12 12 12 11 10 9 9 9 9 9 9 10 10 11 11 11 11 11 11 10 10 9 8 8 8 8 8
12 13 13 13 13 13 13 14 14 15 15 15 15 16 16 17 17 16 16 16 16 16 16 15 15 14 14 14 14 14 15 15 15 15 15 16 16 16 16 16 14 13 12 12 12 11 11 10 10 11 11 11 11 12 12 12 13 12 12 12 11 11 11 10 9 8 7 7 6
12 13 13 13 13 13 14 14 14 15 15 15 16 16 16 16 16 16 15 15 15 15 15 14 13 13 13 13 13 13 13 14 14 15 15 15 16 17 17 16 15 13 13 13 13 13 13 13 13 13 13 13 13 13 13 13 13 13 12 12 12 12 12 11 11 9 8 7 5
12 13 13 13 13 13 14 14 14 15 15 15 16 16 16 16 16 15 15 15 15 15 15 14 13 13 13 13 13 13 13 13 14 15 15 15 16 17 17 16 15 14 13 13 14 14 14 14 14 14 13 13 13 13 13 13 13 12 12 11 11 11 11 11 11 10 9 8 7
13 13 13 14 14 14 14 14 14 15 15 15 15 16 15 15 15 14 14 14 14 15 14 14 14 13 14 14 14 14 14 14 15 16 16 16 17 17 17 16 15 14 13 12 12 12 12 13 13 12 12 12 12 12 12 12 11 11 10 10 9 9 9 9 10 10 10 9 8
13 13 14 14 14 14 14 14 14 14 15 15 15 15 15 14 14 13 13 13 13 14 15 15 15 15 15 15 15 15 15 15 16 16 16 16 16 16 16 15 14 13 11 10 9 9 9 9 9 10 11 11 11 11 10 10 9 9 8 8 8 8 8 8 8 8 9 9 8
13 14 14 14 14 14 14 14 14 14 14 14 14 14 14 13 13 12 12 12 13 14 15 15 15 15 15 15 16 16 16 16 16 16 16 16 15 15 14 14 13 12 10 9 8 8 8 7 7 8 9 9 9 8 8 7 7 7 7 7 7 7 7 7 7 7 7 7 7
13 14 14 14 14 14 14 14 14 13 13 13 13 13 12 11 11 11 12 13 13 14 15 15 15 14 14 14 15 15 16 15 15 15 14 14 14 13 13 12 12 11 9 8 8 8 8 7 7 7 7 7 6 6 5 5 6 7 7 7 7 7 7 7 6 6 5 5 6
Wind_Direction
73 61 45 26 6 354 344 336 316 304 300 301 301 306 314 327 345 360 2 350 329 304 286 277 274 273 270 264 256 250 247 247 249 252 257 260 261 262 262 263 264 266 266 265 258 258 271 301 319 318 308 296 290 285 281 280 280 281 281 280 277 276 274 274 274 274 275 276 276
77 76 75 75 76 77 77 73 64 54 40 21 358 328 306 312 329 347 360 4 358 346 328 309 294 292 285 273 262 258 260 265 269 269 269 268 264 258 255 252 252 250 248 246 257 276 295 306 311 309 301 292 288 285 284 285 288 288 286 283 281 280 279 277 277 276 276 275 271
69 70 72 73 72 72 73 70 66 64 63 59 54 52 42 15 9 14 20 21 13 5 352 334 304 297 297 295 286 279 278 280 279 276 268 259 249 241 236 235 238 243 252 264 285 299 306 308 309 306 301 297 297 297 299 299 300 297 292 289 288 286 283 281 279 278 277 275 269
61 61 61 61 60 59 58 56 54 55 57 59 62 69 75 71 66 63 61 53 44 37 28 13 337 305 296 291 290 288 283 271 256 244 235 226 220 217 220 227 243 265 287 300 310 314 316 316 315 312 309 307 309 311 312 312 311 306 300 296 293 289 285 283 282 281 279 274 268
56 55 54 53 51 50 49 49 49 52 57 62 69 75 78 79 79 79 78 67 57 48 44 43 57 78 112 152 161 176 188 191 193 200 204 202 199 202 214 240 284 311 321 325 326 326 325 324 320 318 316 315 315 315 315 315 314 310 305 302 297 293 289 287 286 284 280 274 268
51 50 49 47 45 46 47 49 52 57 62 67 72 76 77 77 77 77 76 71 70 63 56 56 71 94 114 130 140 151 162 168 174 183 189 191 195 207 242 288 315 327 332 333 331 329 326 325 324 323 323 325 324 320 317 316 315 315 312 309 304 301 297 293 290 287 283 278 272
51 49 46 44 44 47 52 56 61 66 71 75 76 77 76 75 75 75 76 76 76 72 65 62 73 95 114 124 129 136 144 152 159 168 178 187 204 236 280 310 322 328 331 331 329 327 326 326 329 330 331 331 329 325 323 323 323 323 320 316 310 306 301 295 292 290 287 283 280
57 54 50 49 51 56 62 66 71 75 79 79 78 77 78 78 78 78 77 77 73 72 71 71 79 93 108 117 121 126 133 140 148 155 165 183 226 286 313 324 330 332 332 331 331 331 331 331 334 337 338 337 335 333 333 333 331 328 324 318 312 307 302 296 293 292 291 291 291
66 62 59 60 62 67 72 77 81 83 83 82 80 79 80 80 81 80 77 74 73 74 75 75 79 88 102 111 116 120 124 129 124 114 80 5 342 337 337 338 340 340 338 337 337 337 336 337 340 343 346 346 344 341 339 338 334 330 325 320 314 308 304 300 298 297 299 300 301
71 70 70 73 76 80 87 91 92 91 88 86 83 82 82 83 83 81 78 75 77 80 79 72 68 76 93 107 119 120 117 101 30 5 358 351 345 344 346 349 351 350 348 347 347 345 343 344 350 355 358 357 351 345 340 337 334 330 326 321 315 309 306 304 305 306 309 310 309
81 81 82 83 87 94 99 99 98 95 92 88 86 83 82 81 80 78 77 78 83 82 77 67 55 45 40 44 79 84 30 329 333 340 344 346 348 351 354 359 4 5 3 1 1 360 359 360 4 7 6 1 353 345 340 338 335 330 325 320 316 312 309 309 311 314 315 315 312
91 92 94 94 97 102 105 102 98 95 91 87 83 79 76 73 72 72 72 76 78 78 74 61 49 26 6 1 8 5 351 342 343 345 349 358 9 15 16 16 19 20 20 19 17 17 15 16 16 13 5 358 351 345 340 336 332 328 325 322 320 319 317 315 316 317 316 314 309
96 98 99 101 104 107 105 102 97 91 85 80 76 71 67 66 66 70 74 73 71 68 58 48 43 33 26 24 24 27 29 31 28 27 33 42 47 47 42 36 32 30 30 29 28 27 27 27 24 16 3 352 347 343 337 331 327 328 329 330 330 328 325 321 318 317 314 309 302
96 96 98 100 103 105 102 97 90 83 75 71 65 61 61 65 63 67 75 76 63 52 46 50 52 48 46 51 61 70 74 75 73 71 68 64 58 54 51 48 44 40 38 35 32 31 30 29 27 19 6 350 342 338 336 333 332 333 337 337 337 334 330 325 320 316 311 303 295
92 91 90 91 93 93 88 81 76 71 68 65 58 52 54 63 62 61 67 78 79 79 85 87 81 80 82 88 89 88 85 81 76 73 71 68 62 59 56 55 51 48 43 39 35 32 30 29 27 22 14 2 354 351 349 345 343 342 342 342 341 339 335 329 322 317 309 298 287
87 85 83 81 78 75 71 67 65 64 63 63 58 55 58 66 68 70 74 84 96 106 107 101 98 96 95 93 87 83 79 74 71 70 71 69 67 65 61 59 56 53 49 45 41 39 36 34 29 26 22 20 17 14 7 1 359 358 356 352 350 349 348 343 333 320 306 293 279
84 81 78 75 71 69 67 65 65 66 66 66 66 69 74 79 83 88 93 100 107 108 104 99 95 93 89 82 73 65 62 64 67 71 71 70 69 68 66 64 61 58 54 50 49 48 45 42 37 33 32 33 35 32 28 26 31 33 28 23 20 25 32 33 28 8 326 299 277
80 78 76 74 71 69 68 69 70 72 75 77 80 84 88 94 101 106 108 107 104 100 98 95 92 89 84 76 65 54 51 57 65 70 71 71 69 68 66 64 60 57 56 55 56 58 57 54 48 43 43 48 52 55 56 61 71 73 72 70 69 71 74 76 75 74 72 80 105
80 78 76 74 74 74 74 75 77 79 82 85 88 91 95 99 103 107 107 105 101 98 98 98 97 93 88 83 77 74 71 72 78 80 78 76 73 70 66 63 60 59 61 64 69 72 73 70 63 59 59 67 76 81 85 89 94 96 96 95 94 93 94 94 94 94 97 107 121
82 80 79 78 78 79 80 82 83 85 89 93 97 98 97 97 100 103 104 104 106 107 107 105 103 99 96 95 97 99 97 94 94 93 91 88 85 81 77 75 76 78 81 84 86 86 86 86 84 82 84 91 97 101 103 105 107 108 108 107 106 106 105 107 109 113 119 126 131
83 83 83 83 83 84 86 88 91 94 99 102 104 103 102 101 103 103 104 107 112 115 114 109 105 103 103 104 106 105 102 100 99 99 98 96 93 91 91 92 94 94 94 92 91 91 93 95 99 101 104 105 107 108 110 113 115 115 114 113 113 113 114 116 119 121 123 124 124
86 88 89 89 91 93 93 95 98 101 103 104 103 103 104 105 105 105 107 111 115 115 112 108 106 105 104 105 105 105 104 102 100 98 98 97 94 93 94 94 93 92 91 91 92 96 99 101 103 106 109 110 111 112 114 116 116 116 115 115 116 119 120 123 124 123 122 119 115
90 92 94 96 99 100 99 98 98 98 97 98 98 98 99 100 101 103 106 108 107 106 104 102 101 101 101 102 104 105 104 101 97 95 95 95 94 93 91 90 86 85 86 88 92 96 99 101 103 106 109 112 116 117 118 118 118 118 118 118 120 122 125 127 129 129 128 126 122
95 96 97 100 102 102 100 98 95 94 93 93 94 95 96 96 97 99 99 99 98 97 97 96 96 97 98 99 101 101 100 98 95 94 94 93 92 90 87 85 82 80 80 81 82 84 89 98 104 110 114 119 120 121 121 120 120 120 121 124 125 126 129 132 137 141 142 142 138
100 100 100 101 102 103 101 98 95 94 94 94 95 96 97 97 98 99 98 97 96 95 94 94 94 95 95 96 97 97 96 96 95 94 92 90 88 86 84 82 80 79 79 79 81 80 81 90 102 112 118 121 122 121 121 121 122 123 125 127 130 133 136 140 146 151 155 157 155
104 104 102 102 103 103 101 100 98 98 99 100 100 101 101 102 102 101 100 98 96 94 93 92 92 93 93 94 94 94 94 94 95 94 93 92 90 89 87 86 84 83 82 84 85 86 87 91 99 108 115 118 120 122 122 124 124 126 127 130 133 137 141 145 148 152 157 163 166
107 106 105 104 104 103 102 103 104 105 106 107 107 107 106 106 105 104 101 99 97 96 94 94 94 94 95 95 95 95 96 97 98 98 98 97 96 95 92 90 88 88 89 91 91 93 93 94 98 104 110 113 118 123 125 126 128 129 130 131 133 136 140 143 145 148 152 158 166
109 108 107 106 104 104 105 107 109 110 110 111 111 111 110 109 107 104 102 100 99 98 97 97 98 99 100 100 101 101 102 103 104 103 102 100 98 96 93 92 91 91 93 95 96 96 96 96 98 105 112 114 118 122 125 128 129 130 130 130 130 131 132 134 135 138 142 147 155
112 111 110 107 105 106 108 110 112 112 113 113 113 112 111 109 106 104 102 101 101 100 101 103 104 105 105 105 106 108 109 108 108 106 103 100 96 94 93 93 93 94 95 96 97 97 96 96 99 107 116 119 123 126 128 129 130 130 128 126 125 124 123 122 120 118 114 106 97
115 114 111 108 107 108 110 112 113 113 114 114 113 112 110 107 105 104 104 104 105 108 110 112 112 111 110 110 111 112 112 111 109 106 102 99 96 94 94 94 94 94 94 94 94 95 95 97 101 109 119 124 126 128 130 131 129 127 123 120 117 113 109 104 98 91 83 75 68
116 114 112 110 109 109 111 113 114 113 113 113 112 110 108 107 106 107 109 112 115 117 120 120 118 116 116 117 117 116 115 112 109 105 101 99 97 95 95 94 93 92 91 91 92 94 95 97 102 111 119 122 123 123 123 123 119 114 109 104 99 95 91 88 84 80 76 72 67
115 115 113 112 111 112 114 115 114 114 113 113 112 111 109 109 111 114 117 120 122 123 123 123 122 121 121 121 119 117 114 109 105 102 100 98 97 96 95 93 91 90 89 90 92 93 94 96 102 108 112 112 111 110 109 107 104 100 97 93 91 89 87 86 84 81 78 74 70
115 115 115 114 115 117 119 118 117 117 117 117 116 115 114 114 117 119 122 124 125 126 125 125 124 122 121 119 117 113 110 106 104 103 101 100 99 97 95 92 90 89 89 89 90 91 92 94 98 101 102 102 102 103 103 102 101 98 96 93 90 88 85 82 81 79 77 74 71
117 117 118 118 120 122 123 122 122 122 122 121 119 118 118 119 121 122 124 127 128 129 128 127 126 124 122 120 118 114 112 110 109 108 106 104 102 100 96 93 91 89 89 89 89 89 90 92 94 96 98 99 101 102 103 102 100 97 93 89 84 79 74 70 67 67 66 67 67
121 120 121 123 125 127 127 126 127 127 125 122 119 119 120 122 124 125 128 131 131 130 128 128 128 127 125 124 123 120 118 117 116 114 112 110 107 103 99 95 93 90 89 89 88 88 88 89 92 95 97 99 100 99 99 97 94 89 85 79 73 66 61 57 54 52 53 54 57
126 126 126 129 131 132 131 131 131 129 126 122 120 121 123 125 127 130 134 136 133 129 127 126 126 125 123 122 121 121 120 120 118 117 114 112 108 104 99 96 92 89 87 87 87 86 87 88 90 92 94 95 94 93 91 88 84 80 74 69 63 58 53 50 48 47 45 45 46
133 134 134 135 137 138 137 136 133 130 126 125 125 126 128 130 132 136 140 140 135 131 128 126 124 122 119 117 115 114 114 114 114 112 109 107 104 101 98 95 92 89 86 85 85 85 85 86 86 87 87 86 85 83 81 78 74 71 67 63 58 53 49 47 45 45 45 45 42
141 142 142 142 142 142 142 140 136 131 129 129 131 133 135 136 137 140 142 142 138 134 130 127 122 118 115 112 110 110 110 110 109 108 105 102 100 98 97 96 93 91 88 85 84 83 81 80 80 79 77 76 75 74 73 71 70 68 64 60 56 51 47 45 43 43 44 45 43
145 147 147 146 145 145 144 141 138 136 135 136 138 140 141 141 141 143 144 143 138 134 130 125 121 118 116 115 114 114 113 111 109 107 104 102 100 98 97 96 95 92 89 86 84 82 80 78 75 71 69 69 69 70 71 71 71 69 65 60 56 52 49 46 44 43 42 43 44
148 149 149 148 146 145 143 142 141 141 142 143 143 144 145 144 145 145 145 141 136 131 127 124 121 120 120 120 119 118 116 113 110 107 104 102 100 98 97 97 95 94 91 87 84 84 83 80 76 70 67 70 71 73 74 74 72 69 64 59 55 53 52 51 49 46 44 43 45
152 151 149 147 145 143 142 142 143 145 146 146 145 146 147 149 149 147 144 139 135 131 126 123 121 121 121 121 120 120 118 116 112 108 104 101 98 97 96 96 97 96 93 87 83 81 80 79 77 73 72 76 79 79 76 71 67 63 59 56 53 51 50 50 50 50 47 45 45
Height
790 790 790 790 790 790 790 790 790 790 791 791 791 791 791 791 791 792 792 792 792 792 793 793 794 794 795 795 796 796 796 795 795 796 796 796 796 796 796 796 796 797 797 798 798 798 799 799 800 800 801 801 801 802 802 803 803 803 803 803 803 803 803 804 804 804 804 805 805
789 789 789 789 789 789 789 790 790 790 790 790 790 790 791 791 791 791 792 792 792 792 793 793 793 794 794 795 795 794 794 794 794 795 795 795 796 796 796 796 796 796 797 797 797 798 798 799 799 800 800 800 801 801 801 801 801 801 801 801 801 802 802 802 802 803 803 803 803
789 789 789 789 789 789 789 789 789 789 789 789 789 790 790 791 791 791 791 791 792 792 792 792 793 793 793 793 793 793 793 793 793 794 794 794 795 795 795 795 796 796 796 796 797 797 798 798 798 798 799 799 799 799 800 800 800 800 800 800 801 801 801 801 801 802 802 801 801
789 789 789 789 789 789 789 789 789 789 789 789 789 789 790 790 790 791 791 791 791 791 791 792 792 792 792 792 792 792 792 792 793 793 793 794 794 794 795 795 795 796 796 796 796 796 797 797 797 797 797 797 797 798 798 798 799 799 799 800 800 800 800 800 801 801 801 800 800
790 790 790 789 789 789 789 789 789 789 789 789 789 789 789 790 790 790 790 790 791 791 791 791 791 791 791 791 791 791 791 792 792 793 793 793 794 794 794 795 795 795 795 796 796 796 796 796 796 796 796 796 797 797 797 798 798 798 799 799 799 799 799 799 800 800 800 799 799
790 790 790 790 789 789 789 789 789 789 789 789 789 789 789 790 790 790 790 790 791 791 791 791 791 791 791 791 791 791 791 792 792 792 793 793 793 794 794 794 795 795 795 795 795 795 795 796 796 796 796 796 796 796 797 797 797 797 798 798 798 799 799 799 799 799 799 799 798
790 790 790 789 789 789 789 789 789 789 789 789 789 789 790 790 790 790 790 790 791 791 791 791 791 791 791 791 791 791 791 791 792 792 793 793 793 794 794 794 794 794 794 794 794 795 795 795 795 795 795 796 796 796 796 796 796 797 797 797 798 798 798 799 799 799 798 798 798
790 790 790 790 789 789 789 789 789 789 789 789 790 790 790 790 790 790 790 790 791 791 791 791 791 791 791 791 791 791 791 792 792 792 792 793 793 793 793 793 794 794 794 794 794 794 794 794 794 795 795 795 795 796 796 796 796 796 797 797 797 798 798 798 798 798 798 798 798
790 790 790 790 790 790 789 789 789 789 790 790 790 790 790 790 790 790 790 790 791 791 791 791 791 791 791 791 791 791 791 791 792 792 792 792 792 792 793 793 793 793 793 793 793 793 793 794 794 794 794 795 795 795 796 796 796 796 796 796 797 797 797 797 797 797 797 797 797
790 790 790 790 790 790 790 790 790 790 790 790 790 790 790 790 790 790 790 791 791 791 791 791 791 791 791 791 791 791 791 791 791 791 792 792 792 792 792 792 793 793 793 793 793 793 793 793 793 794 794 795 795 795 795 795 795 796 796 796 796 797 797 797 797 797 797 797 797
791 791 790 790 790 790 790 790 790 790 790 790 790 790 790 790 791 791 791 791 791 791 791 791 791 791 791 791 791 791 791 791 791 791 791 792 792 792 792 792 792 792 793 793 793 793 793 793 793 793 794 794 794 795 794 794 795 795 795 796 796 796 796 797 797 797 797 797 797
791 791 791 791 791 790 790 790 790 790 791 791 791 791 791 791 791 791 791 791 791 791 791 791 791 791 791 790 791 791 791 791 791 791 792 792 792 792 792 792 792 792 792 792 793 793 793 793 793 793 794 794 794 794 794 794 794 795 795 795 796 796 796 797 797 797 797 797 797
791 791 791 791 791 791 790 790 791 791 791 791 791 791 791 791 791 791 791 791 791 791 791 791 791 791 791 791 791 791 791 791 791 791 791 791 791 791 791 791 792 792 792 792 792 792 793 793 793 793 794 794 794 794 794 794 794 794 794 795 795 796 796 797 797 797 797 797 797
791 791 791 791 791 791 791 791 791 791 791 791 791 791 791 791 791 791 791 791 791 791 791 791 791 791 791 791 791 791 791 791 791 791 791 791 791 791 791 791 791 792 792 792 792 792 792 793 793 793 794 794 794 794 794 794 794 794 794 794 795 796 796 797 797 797 797 797 797
791 791 791 791 791 791 791 791 791 791 791 791 791 791 791 791 791 791 791 791 791 791 791 791 791 791 791 791 791 791 791 791 791 791 791 791 791 791 791 791 791 792 792 792 792 792 792 793 793 793 794 794 794 794 794 794 794 794 794 794 795 795 796 796 797 797 798 798 798
791 791 791 791 791 791 791 791 791 791 791 791 791 791 791 791 791 791 791 791 791 791 791 791 791 791 791 791 791 791 791 791 791 791 791 791 791 792 792 792 792 792 792 792 792 792 793 793 793 793 794 794 794 794 794 794 794 795 795 795 795 796 796 796 797 798 798 799 799
792 792 792 791 791 791 791 791 791 791 791 791 791 791 791 791 791 791 791 791 791 791 791 791 791 791 791 791 791 791 791 791 791 791 791 792 792 792 792 792 792 792 792 792 792 793 793 793 793 794 794 794 794 794 794 794 794 795 795 795 796 796 796 797 797 798 799 799 800
792 792 792 792 792 792 792 792 792 792 792 792 792 792 792 792 792 792 792 792 792 792 791 791 791 791 792 792 792 792 792 791 791 791 792 792 792 792 792 792 792 792 792 792 793 793 793 793 794 794 794 794 794 794 794 794 795 795 795 796 796 796 797 798 798 799 800 800 801
793 793 792 792 792 792 792 792 792 792 792 792 792 792 792 792 792 792 792 792 792 792 792 792 792 792 792 792 792 792 792 792 792 792 792 792 792 792 792 792 792 792 793 793 793 793 793 794 794 794 794 794 794 795 795 795 795 795 795 796 796 797 797 798 799 800 801 801 802
793 793 793 793 793 793 793 793 793 793 793 793 793 793 793 793 793 792 792 792 792 792 792 792 792 792 792 792 792 792 792 792 792 792 792 792 792 792 792 792 792 793 793 793 793 793 793 794 794 794 794 795 795 795 795 796 796 796 796 796 796 797 798 799 799 800 801 802 802
794 794 794 794 794 794 794 794 794 794 794 794 793 793 793 793 793 793 793 793 793 793 792 792 792 792 792 792 792 792 792 792 792 792 792 792 792 793 793 793 793 793 793 793 793 793 794 794 794 794 795 795 796 796 796 796 796 796 796 796 797 797 798 799 800 801 801 802 803
795 795 795 795 795 795 795 795 794 794 794 794 794 794 793 793 793 793 793 793 793 793 793 793 793 793 793 793 793 793 793 793 793 793 793 793 793 793 793 793 793 793 793 794 794 794 794 794 795 795 795 796 796 796 796 796 796 796 797 797 797 798 798 799 800 801 802 802 803
795 795 795 795 795 795 795 795 795 795 795 795 794 794 794 794 794 794 794 794 793 793 793 793 793 794 794 793 793 793 793 793 793 794 794 794 794 794 794 794 794 794 794 794 794 795 795 795 795 796 796 796 797 797 797 797 797 797 797 797 798 798 799 800 801 801 802 803 803
796 796 796 796 796 796 796 796 795 795 795 795 795 795 795 795 794 794 794 794 794 794 794 794 794 794 794 794 794 794 794 794 794 795 795 795 796 796 795 795 795 795 795 795 796 796 795 796 796 796 797 797 797 797 797 798 798 798 798 798 798 799 799 800 801 801 802 803 803
796 796 796 796 796 796 796 796 796 796 796 796 796 796 796 796 796 796 796 795 795 795 795 795 795 795 795 795 795 795 795 796 796 796 796 797 796 796 796 796 796 796 796 796 796 796 796 796 796 797 797 797 798 798 798 798 798 798 798 799 799 799 800 800 801 801 802 802 803
796 797 797 797 796 796 796 796 796 796 796 796 796 796 796 796 796 796 796 796 796 796 795 795 795 796 796 796 796 796 797 797 797 798 798 798 798 798 797 797 797 797 797 797 797 797 797 797 797 797 798 798 798 798 798 799 799 799 799 799 799 800 800 801 801 802 802 803 803
797 797 797 797 797 796 796 797 797 797 797 797 797 797 797 797 797 797 796 796 796 796 796 796 796 797 797 797 798 798 798 799 799 799 799 799 799 799 798 798 798 798 798 798 798 798 798 798 798 798 798 798 799 799 799 799 799 799 800 800 800 800 801 801 802 802 803 803 803
797 797 797 797 797 797 797 797 798 798 798 798 798 798 798 798 797 797 797 797 797 797 797 797 798 798 799 799 799 800 800 800 800 800 800 800 799 799 799 799 799 799 799 799 799 799 799 799 799 799 799 799 799 800 800 800 800 800 800 801 801 801 801 802 802 803 803 804 804
797 797 797 797 797 797 798 798 798 799 799 798 798 798 798 798 798 798 798 798 798 798 798 799 799 800 800 800 800 801 801 801 801 801 801 800 800 800 800 800 800 800 800 800 800 800 800 800 800 800 800 800 800 800 800 801 801 801 801 801 801 802 802 803 803 803 804 804 804
797 797 797 797 797 798 798 799 799 799 799 799 799 799 799 799 799 799 799 799 799 799 800 800 800 801 801 801 801 802 802 802 802 801 801 801 801 801 801 801 801 801 801 801 801 801 801 801 801 801 801 801 801 801 801 801 801 801 802 802 802 803 803 803 804 804 804 805 805
797 797 797 797 798 798 799 800 800 800 800 800 800 800 800 800 800 800 800 800 800 801 801 801 801 801 802 802 802 803 803 803 802 802 802 802 802 802 802 801 801 802 802 802 802 802 802 801 801 801 801 802 802 802 802 802 802 803 803 803 804 804 804 805 805 805 805 805 805
797 797 797 798 798 799 800 800 800 800 800 800 800 800 801 801 801 801 801 801 801 802 802 802 802 802 803 803 803 803 803 803 803 803 803 803 803 803 802 802 802 803 803 803 803 803 802 802 802 802 802 803 803 803 803 803 804 804 804 804 805 805 805 805 805 805 805 805 805
798 798 798 799 799 800 801 801 801 801 801 801 801 801 801 801 801 802 802 802 803 803 803 803 803 803 804 804 804 804 804 804 804 804 804 804 804 803 803 803 804 804 804 804 804 804 803 803 803 803 804 804 804 804 804 804 804 805 805 805 805 806 806 806 805 805 805 805 805
798 799 799 799 800 801 801 801 801 801 801 801 802 802 802 802 802 803 803 804 804 804 804 804 804 804 804 804 804 805 805 805 805 805 805 805 804 804 804 804 805 805 805 805 805 805 804 804 804 804 805 805 805 805 805 805 805 806 806 806 806 806 806 806 806 806 805 805 805
799 799 800 801 801 801 802 802 802 802 802 802 802 803 803 803 803 804 804 804 804 804 805 805 805 805 805 805 805 805 805 805 805 805 805 805 805 805 805 805 805 806 806 806 806 806 805 805 806 806 806 806 806 806 806 806 806 806 806 806 806 806 806 806 806 806 806 806 805
800 800 801 801 802 802 803 803 803 803 803 803 803 804 804 804 805 805 805 805 805 805 805 805 806 806 806 806 806 806 806 806 806 806 806 806 805 805 805 806 806 806 807 806 806 806 806 806 806 807 807 807 807 807 807 807 807 807 807 807 807 807 806 806 806 806 806 806 806
801 801 801 802 803 803 803 803 803 804 804 804 804 804 805 805 805 806 806 806 806 806 806 806 806 806 806 806 806 806 806 806 806 806 806 806 806 806 806 806 807 807 808 808 808 808 808 808 808 808 808 808 807 807 807 807 807 807 807 807 807 807 807 807 807 806 806 806 806
801 802 802 803 803 803 804 804 804 804 804 805 805 805 806 806 806 806 806 806 806 806 806 806 806 807 807 807 807 807 807 807 807 807 807 807 807 807 807 807 808 808 809 809 809 809 809 809 809 809 809 808 808 808 808 808 808 808 808 808 808 808 808 807 807 807 807 806 806
802 802 803 803 804 804 804 804 805 805 805 805 806 806 806 806 807 807 807 807 807 807 807 807 807 807 807 808 808 808 808 808 808 808 808 808 808 808 808 808 809 809 810 810 810 810 810 810 810 809 809 809 809 809 809 809 809 809 808 808 808 808 808 808 808 807 807 807 807
802 803 803 803 804 804 804 805 805 806 806 806 806 807 807 807 807 807 807 807 807 807 807 807 808 808 808 808 808 808 808 809 809 809 809 809 809 809 809 809 810 810 811 811 811 811 811 811 810 810 810 810 809 809 809 809 809 809 809 809 809 809 808 808 808 808 808 807 807
802 803 803 804 804 805 805 805 806 806 806 806 807 807 807 808 808 808 808 808 808 808 808 808 808 809 809 809 809 809 809 809 809 809 810 810 810 810 810 810 810 811 811 811 811 811 811 811 811 811 811 810 810 810 810 810 810 810 809 809 809 809 809 809 808 808 808 808 808